Orange, MA

1:29 AM EDT on October 19, 2017 (GMT -0400)
Orange Municipal

Weather History for KORE - May, 2013

Change the Weather History Date:

Monday, May 6, 2013

  Actual Average Record
Temperature  
Mean Temperature 52 °F -  
Max Temperature 73 °F 64 °F 80 °F (2000)
Min Temperature 32 °F 39 °F 30 °F (2001)
Degree Days  
Heating Degree Days 12    
Growing Degree Days 2 (Base 50)    
Moisture  
Dew Point 33 °F    
Average Humidity 75    
Maximum Humidity 100    
Minimum Humidity 12    
Precipitation  
Precipitation 0.00 in - - ()
Sea Level Pressure  
Sea Level Pressure 30.24 in    
Wind  
Wind Speed 1 mph (South)    
Max Wind Speed 9 mph    
Max Gust Speed -    
Visibility 6 miles    
Events Fog    
Averages and records for this station are not official NWS values.
T = Trace of Precipitation, MM = Missing Value Source: NWS Daily Summary

Daily Weather History Graph

Daily Weather History Graph

Search for Another Location

Airport or City:

Trip Planner

Search our weather history database for the weather conditions in past years. The results will help you decide how hot, cold, wet, or windy it might be!

Date:

Astronomy

May. 06, 2013 Rise Set
Actual Time 5:37 AM EDT 7:55 PM EDT
Civil Twilight 5:05 AM EDT 8:26 PM EDT
Nautical Twilight 4:27 AM EDT 9:05 PM EDT
Astronomical Twilight 3:44 AM EDT 9:48 PM EDT
Moon 3:41 AM EDT (5/6) 4:48 PM EDT (5/6)
Length of Visible Light 15h 20m
Length of Day
14h 17m
Waning Crescent, 11% of the Moon is Illuminated
May 6
Waning Crescent
May 9
New
May 18
First Quarter
May 25
Full
May 31
Last Quarter

Hourly Weather History & Observations

Time (EDT) Temp. Windchill Dew Point Humidity Pressure Visibility Wind Dir Wind Speed Gust Speed Precip Events Conditions
12:52 AM 39.9 °F - 36.0 °F 86% 30.26 in 10.0 mi Calm Calm - N/A   Clear
1:52 AM 37.9 °F - 35.1 °F 89% 30.25 in 10.0 mi Calm Calm - N/A   Clear
2:52 AM 36.0 °F - 34.0 °F 93% 30.25 in 10.0 mi Calm Calm - N/A   Clear
3:52 AM 34.0 °F - 33.1 °F 96% 30.25 in 2.5 mi Calm Calm - N/A   Clear
3:59 AM 33.8 °F - 32.0 °F 93% 30.24 in 4.0 mi Calm Calm - N/A   Clear
4:52 AM 32.0 °F - 30.0 °F 92% 30.25 in 10.0 mi Calm Calm - N/A   Clear
5:05 AM 32.0 °F - 30.2 °F 93% 30.25 in 1.8 mi Calm Calm - N/A   Clear
5:08 AM 32.0 °F - 30.2 °F 93% 30.25 in 1.0 mi Calm Calm - N/A   Clear
5:15 AM 32.0 °F - 30.2 °F 93% 30.24 in 0.5 mi Calm Calm - N/A Fog Fog
5:20 AM 32.0 °F - 30.2 °F 93% 30.24 in 1.2 mi Calm Calm - N/A   Clear
5:22 AM 32.0 °F - 30.2 °F 93% 30.24 in 3.0 mi Calm Calm - N/A   Clear
5:40 AM 32.0 °F - 30.2 °F 93% 30.25 in 0.8 mi Calm Calm - N/A   Mist
5:49 AM 32.0 °F - 30.2 °F 93% 30.25 in 0.2 mi Calm Calm - N/A Fog Fog
5:52 AM 32.0 °F - 30.9 °F 96% 30.26 in 0.2 mi Calm Calm - N/A Fog Fog
6:01 AM 33.8 °F - 32.0 °F 93% 30.26 in 1.0 mi Calm Calm - N/A   Overcast
6:03 AM 33.8 °F - 32.0 °F 93% 30.26 in 1.8 mi Calm Calm - N/A   Overcast
6:05 AM 33.8 °F - 32.0 °F 93% 30.26 in 3.0 mi Calm Calm - N/A   Overcast
6:52 AM 36.0 °F - 35.1 °F 97% 30.28 in 7.0 mi Calm Calm - N/A   Overcast
7:07 AM 37.4 °F - 35.6 °F 93% 30.27 in 1.8 mi Calm Calm - N/A   Overcast
7:14 AM 37.4 °F - 35.6 °F 93% 30.27 in 1.0 mi Calm Calm - N/A   Overcast
7:23 AM 37.4 °F - 37.4 °F 100% 30.27 in 0.5 mi Calm Calm - N/A Fog Fog
7:47 AM 39.2 °F - 37.4 °F 93% 30.28 in 1.2 mi Calm Calm - N/A   Overcast
7:52 AM 39.9 °F - 39.0 °F 97% 30.29 in 1.5 mi Calm Calm - N/A   Overcast
8:01 AM 39.2 °F - 39.2 °F 100% 30.28 in 3.0 mi Calm Calm - N/A   Overcast
8:52 AM 42.1 °F 39.2 °F 41.0 °F 96% 30.30 in 10.0 mi South 4.6 mph - N/A   Overcast
9:37 AM 44.6 °F - 41.0 °F 87% 30.28 in 10.0 mi Calm Calm - N/A   Overcast
9:52 AM 46.0 °F - 41.0 °F 83% 30.30 in 10.0 mi Calm Calm - N/A   Overcast
10:25 AM 51.8 °F - 41.0 °F 67% 30.28 in 10.0 mi Calm Calm - N/A   Scattered Clouds
10:52 AM 53.1 °F - 41.0 °F 64% 30.28 in 10.0 mi Variable 3.5 mph - N/A   Clear
11:52 AM 59.0 °F - 25.0 °F 27% 30.26 in 10.0 mi South 6.9 mph - N/A   Clear
12:52 PM 64.9 °F - 28.0 °F 25% 30.22 in 10.0 mi ESE 8.1 mph - N/A   Clear
1:52 PM 69.1 °F - 28.0 °F 22% 30.20 in 10.0 mi Variable 4.6 mph - N/A   Clear
2:52 PM 70.0 °F - 28.0 °F 21% 30.18 in 10.0 mi SSW 9.2 mph - N/A   Clear
3:52 PM 73.0 °F - 17.1 °F 12% 30.16 in 10.0 mi SSW 5.8 mph - N/A   Clear
4:52 PM 72.0 °F - 19.9 °F 14% 30.14 in 10.0 mi South 8.1 mph - N/A   Clear
5:52 PM 72.0 °F - 23.0 °F 16% 30.14 in 10.0 mi South 8.1 mph - N/A   Clear
6:52 PM 71.1 °F - 32.0 °F 24% 30.12 in 10.0 mi South 6.9 mph - N/A   Clear
7:52 PM 60.1 °F - 37.9 °F 44% 30.13 in 10.0 mi Calm Calm - N/A   Clear
8:52 PM 53.1 °F - 39.9 °F 61% 30.15 in 10.0 mi Calm Calm - N/A   Clear
9:52 PM 51.1 °F - 39.9 °F 66% 30.18 in 10.0 mi Calm Calm - N/A   Clear
10:52 PM 48.9 °F - 42.1 °F 77% 30.19 in 10.0 mi Calm Calm - N/A   Clear
11:52 PM 46.9 °F - 41.0 °F 80% 30.18 in 10.0 mi Calm Calm - N/A   Clear